Regional Weather Roundup
Issued by NWS

Home | Current Version | Previous Version | Text Only | Print | Product List | Glossary Off
Versions: 1 2 3 4 5 6 7 8 9 10 11 12 13 14 15 16 17 18 19 20 21 22 23 24 25 26 27 28 29 30 31 32 33 34 35 36 37 38 39 40 41 42 43 44 45 46 47 48 49 50

000
ASUS43 KBIS 291620
RWRND

NORTH DAKOTA REGIONAL WEATHER ROUNDUP
NATIONAL WEATHER SERVICE BISMARCK ND
1100 AM CDT TUE JUL 29 2014

NOTE: "FAIR" INDICATES FEW OR NO CLOUDS BELOW 12,000 FEET WITH NO
SIGNIFICANT WEATHER AND/OR OBSTRUCTIONS TO VISIBILITY.


NDZ001>003-009>011-017-291700-
NORTHWEST NORTH DAKOTA

CITY           SKY/WX    TMP DP  RH WIND       PRES   REMARKS
WILLISTON      SUNNY     73  55  53 CALM      30.21S
MINOT          SUNNY     74  55  51 CALM      30.20S
MINOT AFB      SUNNY     73  60  61 SE6       30.20S
$$

NDZ018>021-031>035-040>046-291700-
SOUTHWEST NORTH DAKOTA

CITY           SKY/WX    TMP DP  RH WIND       PRES   REMARKS
BISMARCK       MOSUNNY   71  54  54 NW3       30.24S
DICKINSON      MOSUNNY   75  55  49 S8        30.22F
GARRISON         N/A     72  59  63 SW5       30.22S
HETTINGER ARPT SUNNY     74  54  49 SW6       30.25F
$$

NDZ004>008-012>016-024-026-027-054-291700-
NORTHEAST NORTH DAKOTA

CITY           SKY/WX    TMP DP  RH WIND       PRES   REMARKS
GRAND FORKS    MOSUNNY   72  56  57 NW5       30.17S
GRND FRKS AFB  SUNNY     72  58  60 NW6       30.18S
DEVILS LAKE    SUNNY     70  54  56 NW5       30.19S
$$

NDZ022-023-025-028>030-036>039-047>053-291700-
SOUTHEAST NORTH DAKOTA

CITY           SKY/WX    TMP DP  RH WIND       PRES   REMARKS
FARGO          SUNNY     73  56  54 NW5       30.18S
JAMESTOWN      SUNNY     71  51  49 MISG      30.21S
$$




USA.gov is the U.S. government's official web portal to all federal, state and local government web resources and services.